Weather in Chkalovo

Ukraine / Kherson District     46°28′47″N   34°10′57″E
temp.,
°C
wind,
m/s
gust,
m/s
humid.,
%
clouds,
%
prec.,
mm/h
press.,
hPa
HPBL,
m
26 february, fri
fri2623:00+2wsw499799 0.2 1030189
02:00+3wsw41097100 0.2 1029235
05:00+4w489797 0.0 1028157
08:00+4w359885 0.0 1027139
11:00+9w468476 0.0 1027521
14:00+12wsw587483 0.0 1024670
17:00+9sw610794 0.0 1022286
20:00+6wsw510922 0.0 1022244
27 february, sat
sat2723:00+5wsw510930 0.0 1020255
02:00+5wsw510940 0.0 1020218
05:00+4wsw46960 0.0 1017134
08:00+4w35948 0.0 1017203
11:00+6wnw459177 0.0 1016329
14:00+7nw588788 0.0 1015559
17:00+6nw4879100 0.0 1016623
20:00+5nw3884100 0.0 1016298
28 february, sun
sun2823:00+4nw4777100 0.0 1017226
02:00+3nw488699 0.1 1017345
05:00+3nw369696 0.1 1018350
08:00+3nnw699198 0.3 1019536
11:00+4nnw578199 0.2 1021820
14:00+5nnw576296 0.3 10221197
17:00+4nnw5768100 0.1 1022913
20:00+3nw487799 0.2 1024471
1 march, mon
mon123:00+2nw368394 0.1 1025249
02:00+2nw368297 0.1 1025348
05:000nw369199 0.0 1026222
08:00+1nnw359192 0.1 1026346
11:00+3n346986 0.1 1027792
14:00+4n446193 0.2 10271071
17:00+3n4561100 0.0 10281191
20:000nw358391 0.1 1030118
2 march, tue
tue223:000nnw338230 0.0 103176
02:00−1n348423 0.0 103293
05:00−1n238812 0.0 103262
08:000nnw237951 0.0 1032196
11:00+4nw345545 0.0 10321056
14:00+6wnw564624 0.0 10301167
17:00+4wnw576623 0.0 1029569
20:00+3w5107654 0.0 1028325